EZY28QN LGAV-EGPH

Flight info

Callsign EZY28QN
Flight time N/A
Altitude 36000
Route KOR UL53 IXONI DCT VARDI DCT DIMIS DCT VRANA DCT NIVES DCT GORPA DCT SIMBA DCT GASKA/N0450F380 DCT MAPOX DCT AMGOD L602 NALAX L46 ESHIN N110 ERKIT DCT AGPED
Aircraft A320/M-SDE3FGHIRWY/LB1

Departure

Time 2026-05-07 09:31
Airport Athens Eleftherios Venizelos International Airport (LGAV)

Arrival

Time N/A
Airport Edinburgh Airport (EGPH)
Time Latitude Longitude Altitude Speed Heading
2026-05-07 08:51 37.93113 23.94414 301 ft 0 kts 217°
2026-05-07 09:21 37.93121 23.94422 302 ft 4 kts 217°
2026-05-07 09:21 37.93142 23.94442 301 ft 2 kts 217°
2026-05-07 09:21 37.93160 23.94457 302 ft 4 kts 193°
2026-05-07 09:21 37.93183 23.94454 303 ft 4 kts 136°
2026-05-07 09:22 37.93189 23.94446 302 ft 0 kts 127°
2026-05-07 09:24 37.93174 23.94473 302 ft 9 kts 127°
2026-05-07 09:24 37.93113 23.94575 303 ft 18 kts 127°
2026-05-07 09:25 37.93056 23.94684 301 ft 15 kts 104°
2026-05-07 09:25 37.93135 23.94794 301 ft 20 kts 36°
2026-05-07 09:25 37.93253 23.94904 301 ft 23 kts 36°
2026-05-07 09:25 37.93391 23.95036 298 ft 24 kts 36°
2026-05-07 09:26 37.93543 23.95181 301 ft 30 kts 37°
2026-05-07 09:26 37.93706 23.95335 301 ft 29 kts 37°
2026-05-07 09:26 37.93874 23.95494 300 ft 22 kts 36°
2026-05-07 09:26 37.94004 23.95617 297 ft 22 kts 37°
2026-05-07 09:27 37.94132 23.95738 297 ft 25 kts 37°
2026-05-07 09:27 37.94276 23.95875 301 ft 26 kts 37°
2026-05-07 09:27 37.94539 23.96126 300 ft 27 kts 37°
2026-05-07 09:28 37.94690 23.96269 300 ft 25 kts 37°
2026-05-07 09:28 37.94831 23.96404 300 ft 27 kts 37°
2026-05-07 09:28 37.94986 23.96550 303 ft 24 kts 37°
2026-05-07 09:28 37.95104 23.96662 303 ft 19 kts 38°
2026-05-07 09:29 37.95209 23.96760 303 ft 18 kts 36°
2026-05-07 09:29 37.95273 23.96822 305 ft 12 kts 37°
2026-05-07 09:29 37.95288 23.96912 304 ft 12 kts 118°
2026-05-07 09:29 37.95245 23.96986 308 ft 9 kts 127°
2026-05-07 09:30 37.95198 23.97027 310 ft 9 kts 185°
2026-05-07 09:30 37.95166 23.96999 312 ft 0 kts 218°
2026-05-07 09:30 37.95114 23.96947 311 ft 38 kts 218°
2026-05-07 09:30 37.94696 23.96553 302 ft 108 kts 216°
2026-05-07 09:31 37.93944 23.95841 280 ft 159 kts 216°
2026-05-07 09:31 37.92958 23.94919 465 ft 185 kts 212°
2026-05-07 09:31 37.91856 23.94064 1140 ft 186 kts 207°
2026-05-07 09:31 37.90711 23.93293 1791 ft 190 kts 207°
2026-05-07 09:32 37.89464 23.92470 2067 ft 216 kts 207°
2026-05-07 09:32 37.88052 23.91545 2520 ft 237 kts 207°
2026-05-07 09:32 37.86580 23.90573 3361 ft 240 kts 207°
2026-05-07 09:32 37.85095 23.89586 4244 ft 243 kts 207°
2026-05-07 09:33 37.83590 23.88575 5109 ft 246 kts 208°
2026-05-07 09:33 37.82068 23.87545 5927 ft 250 kts 208°
2026-05-07 09:33 37.80523 23.86493 6670 ft 256 kts 209°
2026-05-07 09:33 37.78947 23.85420 6921 ft 257 kts 209°
2026-05-07 09:34 37.77374 23.84348 7021 ft 258 kts 209°
2026-05-07 09:34 37.75779 23.83258 7646 ft 261 kts 209°
2026-05-07 09:34 37.74174 23.82165 8447 ft 263 kts 209°
2026-05-07 09:34 37.72543 23.81068 9210 ft 268 kts 209°
2026-05-07 09:35 37.70886 23.79964 9960 ft 272 kts 209°
2026-05-07 09:35 37.69197 23.78840 10633 ft 276 kts 209°
2026-05-07 09:35 37.67490 23.77706 11330 ft 278 kts 210°
2026-05-07 09:35 37.65765 23.76563 12044 ft 281 kts 210°
2026-05-07 09:36 37.64023 23.75411 12735 ft 284 kts 210°
2026-05-07 09:36 37.62267 23.74244 13431 ft 287 kts 211°
2026-05-07 09:36 37.60497 23.73065 14092 ft 290 kts 211°
2026-05-07 09:36 37.58706 23.71873 14707 ft 292 kts 211°
2026-05-07 09:37 37.56930 23.70575 15095 ft 302 kts 223°
2026-05-07 09:37 37.55632 23.68454 15217 ft 316 kts 249°
2026-05-07 09:37 37.55062 23.65712 15346 ft 333 kts 259°
2026-05-07 09:37 37.54599 23.62783 15621 ft 346 kts 259°
2026-05-07 09:38 37.54121 23.59796 16174 ft 350 kts 259°
2026-05-07 09:38 37.53628 23.56773 16739 ft 353 kts 259°
2026-05-07 09:38 37.53129 23.53726 17338 ft 356 kts 259°
2026-05-07 09:38 37.52620 23.50657 17930 ft 359 kts 258°
2026-05-07 09:39 37.52105 23.47564 18521 ft 362 kts 258°
2026-05-07 09:39 37.51583 23.44448 19056 ft 365 kts 258°
2026-05-07 09:39 37.51056 23.41312 19576 ft 367 kts 258°
2026-05-07 09:39 37.50527 23.38162 20073 ft 370 kts 258°
2026-05-07 09:40 37.49993 23.34985 20580 ft 372 kts 258°
2026-05-07 09:40 37.49454 23.31787 21063 ft 375 kts 258°
2026-05-07 09:40 37.49017 23.28547 21544 ft 376 kts 267°
2026-05-07 09:40 37.49248 23.25271 22008 ft 379 kts 283°
2026-05-07 09:41 37.50251 23.22189 22488 ft 384 kts 300°
2026-05-07 09:41 37.51958 23.19580 22959 ft 391 kts 316°
2026-05-07 09:41 37.54242 23.17694 23379 ft 398 kts 330°
2026-05-07 09:41 37.56740 23.16151 23811 ft 401 kts 330°
2026-05-07 09:42 37.59257 23.14603 24191 ft 403 kts 330°
2026-05-07 09:42 37.61784 23.13047 24569 ft 405 kts 330°
2026-05-07 09:42 37.64321 23.11483 24956 ft 406 kts 330°
2026-05-07 09:42 37.66857 23.09916 25346 ft 407 kts 330°
2026-05-07 09:43 37.69406 23.08333 25717 ft 409 kts 330°
2026-05-07 09:43 37.71963 23.06741 26077 ft 410 kts 330°
2026-05-07 09:43 37.74529 23.05142 26448 ft 412 kts 330°
2026-05-07 09:43 37.77096 23.03543 26817 ft 413 kts 330°
2026-05-07 09:44 37.79679 23.01934 27174 ft 414 kts 330°
2026-05-07 09:44 37.82274 23.00316 27522 ft 417 kts 330°
2026-05-07 09:44 37.84873 22.98693 27859 ft 419 kts 330°
2026-05-07 09:44 37.87493 22.97057 28190 ft 420 kts 330°
2026-05-07 09:45 37.90106 22.95384 28535 ft 420 kts 326°
2026-05-07 09:45 37.92502 22.93292 28868 ft 418 kts 316°
2026-05-07 09:45 37.94558 22.90710 29191 ft 416 kts 307°
2026-05-07 09:45 37.96265 22.87759 29500 ft 415 kts 302°
2026-05-07 09:46 37.97913 22.84750 29788 ft 417 kts 302°
2026-05-07 09:46 37.99575 22.81722 30070 ft 419 kts 302°
2026-05-07 09:46 38.01246 22.78681 30316 ft 421 kts 303°
2026-05-07 09:46 38.02926 22.75629 30563 ft 422 kts 303°
2026-05-07 09:47 38.04604 22.72577 30819 ft 423 kts 303°
2026-05-07 09:47 38.06290 22.69506 31067 ft 424 kts 303°
2026-05-07 09:47 38.07979 22.66428 31314 ft 425 kts 303°
2026-05-07 09:47 38.09685 22.63313 31646 ft 424 kts 303°
2026-05-07 09:48 38.11366 22.60249 32023 ft 421 kts 302°
2026-05-07 09:48 38.13010 22.57245 32412 ft 419 kts 302°
2026-05-07 09:48 38.14665 22.54213 32795 ft 416 kts 302°
2026-05-07 09:48 38.16310 22.51200 33185 ft 413 kts 302°
2026-05-07 09:49 38.17962 22.48173 33581 ft 411 kts 302°
2026-05-07 09:49 38.19584 22.45198 33982 ft 408 kts 302°
2026-05-07 09:49 38.21194 22.42243 34349 ft 405 kts 302°
2026-05-07 09:49 38.22767 22.39348 34693 ft 402 kts 302°
2026-05-07 09:50 38.24369 22.36399 35035 ft 399 kts 302°
2026-05-07 09:50 38.25943 22.33501 35351 ft 397 kts 302°
2026-05-07 09:50 38.27506 22.30618 35649 ft 395 kts 302°
2026-05-07 09:50 38.29056 22.27755 35933 ft 393 kts 302°
2026-05-07 09:51 38.30686 22.24962 36098 ft 394 kts 308°
2026-05-07 09:51 38.34944 22.20509 36138 ft 401 kts 323°
2026-05-07 09:52 38.39702 22.16790 36136 ft 401 kts 323°
2026-05-07 09:52 38.44469 22.13054 36141 ft 403 kts 322°
2026-05-07 09:53 38.49260 22.09285 36139 ft 405 kts 323°
2026-05-07 09:53 38.54055 22.05505 36144 ft 405 kts 323°
2026-05-07 09:54 38.58854 22.01707 36137 ft 406 kts 323°
2026-05-07 09:54 38.63652 21.97913 36139 ft 406 kts 323°
2026-05-07 09:55 38.68435 21.94062 36132 ft 405 kts 321°
2026-05-07 09:55 38.73001 21.89843 36128 ft 405 kts 317°
2026-05-07 09:56 38.76726 21.86189 36129 ft 406 kts 318°
2026-05-07 09:56 38.81241 21.81809 36128 ft 407 kts 318°
2026-05-07 09:57 38.85796 21.77485 36137 ft 409 kts 319°
2026-05-07 09:57 38.90376 21.73147 36141 ft 409 kts 319°
2026-05-07 09:58 38.94945 21.68794 36142 ft 409 kts 319°
2026-05-07 09:58 38.99518 21.64419 36141 ft 410 kts 319°
2026-05-07 09:59 39.04102 21.60038 36141 ft 411 kts 319°
2026-05-07 09:59 39.08693 21.55655 36128 ft 412 kts 319°
2026-05-07 10:00 39.13288 21.51245 36141 ft 413 kts 319°
2026-05-07 10:00 39.17894 21.46809 36144 ft 413 kts 319°
2026-05-07 10:01 39.22513 21.42373 36143 ft 414 kts 319°
2026-05-07 10:01 39.27136 21.37918 36137 ft 416 kts 319°
2026-05-07 10:02 39.31773 21.33437 36140 ft 417 kts 319°
2026-05-07 10:02 39.36419 21.28949 36142 ft 418 kts 319°
2026-05-07 10:03 39.41082 21.24434 36145 ft 419 kts 319°
2026-05-07 10:03 39.45748 21.19892 36145 ft 421 kts 319°
2026-05-07 10:04 39.50435 21.15336 36145 ft 422 kts 319°
2026-05-07 10:04 39.55121 21.10775 36149 ft 422 kts 319°
2026-05-07 10:05 39.59822 21.06194 36146 ft 423 kts 319°
2026-05-07 10:05 39.64531 21.01597 36146 ft 425 kts 319°
2026-05-07 10:06 39.69255 20.96973 36149 ft 425 kts 319°
2026-05-07 10:06 39.73980 20.92333 36149 ft 427 kts 319°
2026-05-07 10:07 39.78725 20.87669 36151 ft 428 kts 319°
2026-05-07 10:07 39.83481 20.82994 36155 ft 429 kts 319°
2026-05-07 10:08 39.88255 20.78294 36154 ft 430 kts 319°
2026-05-07 10:08 39.93024 20.73585 36142 ft 430 kts 319°
2026-05-07 10:09 39.97813 20.68842 36151 ft 433 kts 319°
2026-05-07 10:09 40.02601 20.64096 36146 ft 433 kts 319°
2026-05-07 10:10 40.07425 20.59373 36142 ft 435 kts 323°
2026-05-07 10:10 40.12672 20.55273 36146 ft 437 kts 326°
2026-05-07 10:11 40.17875 20.51229 36149 ft 438 kts 326°
2026-05-07 10:11 40.23148 20.47110 36148 ft 439 kts 325°
2026-05-07 10:12 40.28359 20.43032 36147 ft 439 kts 326°
2026-05-07 10:12 40.33643 20.38892 36147 ft 440 kts 325°
2026-05-07 10:13 40.38874 20.34803 36145 ft 441 kts 325°
2026-05-07 10:13 40.44174 20.30642 36141 ft 442 kts 325°
2026-05-07 10:14 40.49452 20.26484 36147 ft 443 kts 325°
2026-05-07 10:14 40.54731 20.22326 36142 ft 443 kts 325°
2026-05-07 10:15 40.59986 20.18184 36142 ft 443 kts 325°
2026-05-07 10:15 40.65305 20.13973 36135 ft 443 kts 325°
2026-05-07 10:16 40.70590 20.09772 36136 ft 443 kts 325°
2026-05-07 10:16 40.75839 20.05597 36130 ft 443 kts 325°
2026-05-07 10:17 40.81151 20.01370 36131 ft 443 kts 325°
2026-05-07 10:17 40.86422 19.97174 36121 ft 443 kts 325°
2026-05-07 10:18 40.91696 19.92968 36117 ft 442 kts 325°
2026-05-07 10:18 40.96932 19.88779 36116 ft 443 kts 325°
2026-05-07 10:19 41.02235 19.84529 36119 ft 443 kts 325°
2026-05-07 10:19 41.07506 19.80301 36123 ft 442 kts 325°
2026-05-07 10:20 41.12758 19.76068 36123 ft 442 kts 325°
2026-05-07 10:20 41.18009 19.71839 36123 ft 441 kts 325°
2026-05-07 10:21 41.23255 19.67598 36124 ft 441 kts 325°
2026-05-07 10:21 41.28497 19.63353 36124 ft 441 kts 325°
2026-05-07 10:22 41.33727 19.59113 36131 ft 440 kts 325°
2026-05-07 10:22 41.38956 19.54868 36123 ft 440 kts 325°
2026-05-07 10:23 41.44170 19.50622 36114 ft 439 kts 325°
2026-05-07 10:23 41.49389 19.46363 36111 ft 439 kts 325°
2026-05-07 10:24 41.54599 19.42101 36107 ft 440 kts 325°
2026-05-07 10:24 41.59822 19.37825 36104 ft 440 kts 324°
2026-05-07 10:25 41.65051 19.33537 36107 ft 441 kts 324°
2026-05-07 10:25 41.70278 19.29241 36107 ft 441 kts 324°
2026-05-07 10:26 41.75515 19.24927 36110 ft 442 kts 324°
2026-05-07 10:26 41.80750 19.20614 36112 ft 442 kts 324°
2026-05-07 10:27 41.85983 19.16284 36121 ft 443 kts 324°
2026-05-07 10:27 41.91228 19.11944 36120 ft 443 kts 324°
2026-05-07 10:28 41.96468 19.07595 36125 ft 443 kts 324°
2026-05-07 10:28 42.01703 19.03244 36133 ft 443 kts 324°
2026-05-07 10:29 42.06943 18.98876 36131 ft 443 kts 324°
2026-05-07 10:29 42.12175 18.94509 36126 ft 443 kts 324°
2026-05-07 10:30 42.20032 18.87939 36122 ft 443 kts 324°
2026-05-07 10:30 42.25267 18.83559 36118 ft 443 kts 324°
2026-05-07 10:31 42.30502 18.79155 36116 ft 443 kts 324°
2026-05-07 10:31 42.35728 18.74743 36119 ft 443 kts 324°
2026-05-07 10:32 42.40954 18.70328 36118 ft 442 kts 324°
2026-05-07 10:32 42.46180 18.65918 36119 ft 442 kts 324°
2026-05-07 10:33 42.51400 18.61501 36125 ft 442 kts 324°
2026-05-07 10:33 42.56606 18.57080 36126 ft 442 kts 324°
2026-05-07 10:34 42.60936 18.53401 36128 ft 441 kts 324°
2026-05-07 10:34 42.66131 18.48964 36126 ft 441 kts 323°
2026-05-07 10:35 42.71328 18.44519 36129 ft 441 kts 324°
2026-05-07 10:35 42.76515 18.40082 36122 ft 441 kts 324°
2026-05-07 10:36 42.81707 18.35637 36127 ft 441 kts 324°
2026-05-07 10:36 42.86892 18.31190 36129 ft 440 kts 324°
2026-05-07 10:37 42.92078 18.26727 36129 ft 440 kts 324°
2026-05-07 10:37 42.97249 18.22268 36133 ft 440 kts 324°
2026-05-07 10:38 43.02420 18.17797 36129 ft 439 kts 324°
2026-05-07 10:38 43.07583 18.13327 36120 ft 440 kts 324°
2026-05-07 10:39 43.12750 18.08840 36114 ft 439 kts 323°
2026-05-07 10:39 43.17943 18.04322 36121 ft 440 kts 323°
2026-05-07 10:40 43.23078 17.99865 36120 ft 439 kts 323°
2026-05-07 10:40 43.28268 17.95339 36116 ft 439 kts 323°
2026-05-07 10:41 43.33383 17.90849 36133 ft 439 kts 323°
2026-05-07 10:41 43.38560 17.86305 36131 ft 439 kts 323°
2026-05-07 10:42 43.43670 17.81816 36125 ft 438 kts 323°
2026-05-07 10:42 43.48846 17.77270 36118 ft 438 kts 323°
2026-05-07 10:43 43.53979 17.72748 36130 ft 438 kts 323°
2026-05-07 10:43 43.59109 17.68208 36115 ft 438 kts 323°
2026-05-07 10:44 43.64233 17.63666 36123 ft 438 kts 323°
2026-05-07 10:44 43.69365 17.59111 36125 ft 438 kts 323°
2026-05-07 10:45 43.74457 17.54581 36118 ft 438 kts 323°
2026-05-07 10:45 43.79332 17.49514 36111 ft 435 kts 318°
2026-05-07 10:46 43.84114 17.44366 36116 ft 435 kts 318°
2026-05-07 10:46 43.88888 17.39220 36116 ft 435 kts 318°
2026-05-07 10:47 43.93654 17.34072 36108 ft 434 kts 318°
2026-05-07 10:47 43.98420 17.28911 36110 ft 434 kts 318°
2026-05-07 10:48 44.03179 17.23755 36109 ft 434 kts 318°
2026-05-07 10:48 44.07941 17.18585 36103 ft 434 kts 318°
2026-05-07 10:49 44.12695 17.13408 36088 ft 434 kts 317°
2026-05-07 10:49 44.17433 17.08224 36091 ft 433 kts 317°
2026-05-07 10:50 44.22172 17.03037 36086 ft 434 kts 317°
2026-05-07 10:50 44.26921 16.97841 36078 ft 434 kts 317°
2026-05-07 10:51 44.31667 16.92631 36077 ft 434 kts 317°
2026-05-07 10:51 44.36401 16.87410 36071 ft 434 kts 317°
2026-05-07 10:52 44.41142 16.82173 36067 ft 434 kts 317°
2026-05-07 10:52 44.45875 16.76935 36070 ft 434 kts 317°
2026-05-07 10:53 44.50612 16.71698 36067 ft 434 kts 316°
2026-05-07 10:53 44.55339 16.66449 36066 ft 433 kts 316°
2026-05-07 10:54 44.60054 16.61192 36066 ft 433 kts 316°
2026-05-07 10:54 44.64773 16.55939 36067 ft 433 kts 316°
2026-05-07 10:55 44.69487 16.50672 36070 ft 433 kts 316°
2026-05-07 10:55 44.74192 16.45397 36073 ft 433 kts 316°
2026-05-07 10:56 44.78893 16.40106 36059 ft 432 kts 316°
2026-05-07 10:56 44.83587 16.34824 36060 ft 432 kts 316°
2026-05-07 10:57 44.88290 16.29531 36062 ft 432 kts 316°
2026-05-07 10:57 44.92988 16.24228 36064 ft 432 kts 315°
2026-05-07 10:58 44.97672 16.18918 36070 ft 432 kts 315°
2026-05-07 10:58 45.02365 16.13597 36068 ft 432 kts 315°
2026-05-07 10:59 45.07049 16.08276 36067 ft 432 kts 315°
2026-05-07 10:59 45.11733 16.02939 36066 ft 432 kts 315°
2026-05-07 11:00 45.16407 15.97599 36067 ft 432 kts 315°
2026-05-07 11:00 45.21080 15.92240 36058 ft 432 kts 315°
2026-05-07 11:01 45.25848 15.87043 36058 ft 434 kts 319°
2026-05-07 11:01 45.30829 15.82161 36055 ft 435 kts 320°
2026-05-07 11:02 45.35820 15.77323 36045 ft 434 kts 319°
2026-05-07 11:02 45.40763 15.72395 36042 ft 433 kts 319°
2026-05-07 11:03 45.45675 15.67429 36040 ft 433 kts 319°
2026-05-07 11:03 45.50583 15.62456 36041 ft 433 kts 319°
2026-05-07 11:04 45.55497 15.57483 36043 ft 433 kts 319°
2026-05-07 11:04 45.60410 15.52522 36023 ft 432 kts 319°
2026-05-07 11:05 45.65303 15.47571 36027 ft 431 kts 319°
2026-05-07 11:05 45.70194 15.42597 36026 ft 431 kts 319°
2026-05-07 11:06 45.75071 15.37607 36023 ft 431 kts 318°
2026-05-07 11:06 45.79991 15.32697 36027 ft 433 kts 321°
2026-05-07 11:07 45.85109 15.28118 36031 ft 434 kts 322°
2026-05-07 11:07 45.90268 15.23612 36034 ft 433 kts 322°
2026-05-07 11:08 45.95376 15.19037 36028 ft 433 kts 321°
2026-05-07 11:08 46.00459 15.14406 36026 ft 432 kts 321°
2026-05-07 11:09 46.05530 15.09778 36026 ft 432 kts 321°
2026-05-07 11:09 46.10608 15.05136 36012 ft 432 kts 321°
2026-05-07 11:10 46.15680 15.00497 35996 ft 432 kts 321°
2026-05-07 11:10 46.20761 14.95849 35995 ft 432 kts 321°
2026-05-07 11:11 46.25837 14.91188 35996 ft 432 kts 321°
2026-05-07 11:11 46.30903 14.86516 35994 ft 432 kts 321°
2026-05-07 11:12 46.35971 14.81835 35989 ft 433 kts 321°
2026-05-07 11:12 46.40223 14.77909 35988 ft 433 kts 321°
2026-05-07 11:13 46.45306 14.73207 35969 ft 433 kts 321°
2026-05-07 11:13 46.50385 14.68485 35971 ft 434 kts 321°
2026-05-07 11:14 46.55482 14.63743 35967 ft 435 kts 321°
2026-05-07 11:14 46.60576 14.58997 35971 ft 435 kts 321°
2026-05-07 11:15 46.65682 14.54228 35975 ft 436 kts 321°
2026-05-07 11:15 46.70787 14.49450 35978 ft 437 kts 321°
2026-05-07 11:16 46.75896 14.44652 35977 ft 437 kts 320°
2026-05-07 11:16 46.81000 14.39841 35977 ft 437 kts 320°
2026-05-07 11:17 46.86116 14.35013 35977 ft 438 kts 320°
2026-05-07 11:17 46.91233 14.30186 35975 ft 439 kts 320°
2026-05-07 11:18 46.96362 14.25332 35968 ft 439 kts 320°
2026-05-07 11:18 47.01483 14.20463 35979 ft 439 kts 320°
2026-05-07 11:19 47.06611 14.15566 35974 ft 440 kts 320°
2026-05-07 11:19 47.11739 14.10671 35978 ft 440 kts 320°
2026-05-07 11:20 47.16879 14.05753 35980 ft 441 kts 320°
2026-05-07 11:20 47.22024 14.00824 35987 ft 441 kts 320°
2026-05-07 11:21 47.27165 13.95889 35986 ft 441 kts 320°
2026-05-07 11:21 47.32306 13.90933 35976 ft 441 kts 319°
2026-05-07 11:22 47.37444 13.85971 35983 ft 442 kts 320°
2026-05-07 11:22 47.42598 13.80988 35982 ft 443 kts 320°
2026-05-07 11:23 47.47752 13.75982 35987 ft 444 kts 320°
2026-05-07 11:23 47.52915 13.70961 35995 ft 445 kts 320°
2026-05-07 11:24 47.58098 13.65919 36001 ft 446 kts 320°